Location: Anaheim
(33.8350°N, 117.9140°W)
Time: 05:18:34
(UTC-07:00)

Amateur Radio Satellites - All Passes

Search period start: 05 September 2015 04:48
Search period end: 06 September 2015 04:48
Location: Anaheim, 33.8350°N, 117.9140°W

Satellite Date Start Highest point End Downlink Frequencies (MHz)
Time Altitude Azimuth
HORYU 2 05 Sep 04:48:55 04:53:23 77° 102° (ESE) 04:57:48 437.375
STARS 05 Sep 04:49:41 04:52:02 14° 268° (W) 04:54:09 437.465
Cosmos 2499 05 Sep 04:56:27 05:04:39 50° 283° (WNW) 05:13:10 435.465 / 435.565
CUBESAT XI-V 05 Sep 05:02:04 05:03:47 12° 68° (ENE) 05:05:46 437.345
VERMONT LUNAR 05 Sep 05:17:00 05:19:40 29° 13° (NNE) 05:22:19 437.305
ISS 05 Sep 05:39:12 05:40:31 12° 128° (SE) 05:41:59 145.825
O/OREOS (USA 219) 05 Sep 05:49:07 05:51:10 12° 260° (W) 05:52:57 437.305
AO-7 05 Sep 05:49:17 05:57:09 48° 293° (WNW) 06:04:55 29.400- 29.500
PHONESAT 2.4 05 Sep 05:55:58 05:58:55 26° 355° (N) 06:01:51 2401.200-2431.200
Cubesat XI-IV 05 Sep 06:02:52 06:05:57 16° 92° (E) 06:09:18 437.490
PRISM 05 Sep 06:31:49 06:34:30 18° 70° (ENE) 06:37:18 437.425
CUBESAT XI-V 05 Sep 06:36:19 06:40:49 54° 260° (W) 06:45:19 437.345
CUTE-I 05 Sep 06:44:45 06:49:48 43° 99° (E) 06:54:53 437.470
STRAND 1 05 Sep 06:46:59 06:51:49 46° 73° (ENE) 06:56:41 437.568
VERMONT LUNAR 05 Sep 06:53:15 06:56:10 60° 208° (SSW) 06:59:05 437.305
YUBILEINY 05 Sep 07:05:38 07:12:58 30° 71° (ENE) 07:20:29 435.215
AIST 1 05 Sep 07:12:34 07:16:20 33° 92° (E) 07:20:11
ISS 05 Sep 07:13:32 07:16:40 45° 320° (NW) 07:19:49 145.825
BRITE-PL 05 Sep 07:21:41 07:25:44 21° 92° (E) 07:30:00 437.365/2234.400
GOMX 1 05 Sep 07:27:04 07:28:58 12° 88° (E) 07:31:14 467.674
PHONESAT 2.4 05 Sep 07:34:11 07:37:19 33° 12° (NNE) 07:40:26 2401.200-2431.200
Cubesat XI-IV 05 Sep 07:41:14 07:46:24 51° 287° (WNW) 07:51:32 437.490
SO-50 05 Sep 07:50:00 07:51:39 12° 43° (NE) 07:53:31 436.795
Cosmos 2491 05 Sep 07:50:31 07:57:51 33° 87° (E) 08:05:25 435.465 / 435.565
PRISM 05 Sep 08:06:09 08:09:44 28° 263° (W) 08:13:17 437.425
CUTE-I 05 Sep 08:25:45 08:29:36 20° 292° (WNW) 08:33:18 437.470
STRAND 1 05 Sep 08:28:01 08:31:18 16° 268° (W) 08:34:20 437.568
DOVE 4 05 Sep 08:51:14 08:56:26 54° 99° (E) 09:01:27 437.250
AIST 1 05 Sep 08:51:37 08:54:09 15° 287° (WNW) 08:56:31
CUSAT 1 05 Sep 08:57:41 09:01:06 14° 62° (ENE) 09:05:08 437.405
BRITE-PL 05 Sep 08:59:02 09:04:27 47° 286° (WNW) 09:09:50 437.365/2234.400
CINEMA 3 05 Sep 09:00:27 09:04:31 26° 94° (E) 09:08:31 145.822/145.860
YUBILEINY 05 Sep 09:01:43 09:10:11 52° 269° (W) 09:18:30 435.215
GOMX 1 05 Sep 09:02:10 09:07:40 71° 284° (WNW) 09:13:03 467.674
CUTE 1.7 + AOD 2 05 Sep 09:11:49 09:15:58 57° 100° (E) 09:20:05 437.475
PHONESAT 2.4 05 Sep 09:11:57 09:15:20 64° 208° (SSW) 09:18:41 2401.200-2431.200
Cosmos 2504 05 Sep 09:14:07 09:20:29 25° 69° (ENE) 09:26:49 435.465 / 435.565
HO-68 05 Sep 09:23:57 09:31:10 74° 103° (ESE) 09:38:21 435.675
CANX-2 05 Sep 09:26:36 09:30:49 81° 283° (WNW) 09:35:01 2200.000
SO-50 05 Sep 09:28:01 09:32:58 88° 242° (WSW) 09:37:44 436.795
ZACube-1 05 Sep 09:32:58 09:34:36 12° 90° (E) 09:36:29 437.345
ANTELSAT 05 Sep 09:34:31 09:37:08 15° 68° (ENE) 09:39:57 437.575/2403.000
FUNcube-1 05 Sep 09:35:46 09:37:36 13° 90° (E) 09:39:40 145.935
SEEDS 05 Sep 09:38:51 09:43:02 83° 283° (WNW) 09:47:12 437.485
AUBIESAT-1 05 Sep 09:41:58 09:44:43 16° 65° (ENE) 09:47:36 437.475
Cosmos 2491 05 Sep 09:46:15 09:54:31 45° 284° (WNW) 10:02:42 435.465 / 435.565
DELFI C3 05 Sep 09:46:38 09:49:09 17° 93° (E) 09:51:49 145.870
UWE-3 05 Sep 09:49:39 09:53:29 28° 95° (E) 09:57:16 435.000/436.395/437.385
M-CUBED/EXP-1 PRIME 05 Sep 09:51:16 09:55:02 24° 67° (ENE) 09:58:50 437.505
COMPASS 1 05 Sep 09:52:11 09:56:19 75° 284° (WNW) 10:00:26 437.405
CUBEBUG 2 05 Sep 09:53:10 09:57:30 41° 98° (E) 10:01:43 437.445
AAUSAT CUBESAT 2 05 Sep 09:57:48 10:01:56 77° 283° (WNW) 10:06:02 437.432
DANDE 05 Sep 10:00:09 10:07:02 30° 72° (ENE) 10:14:21 436.750
Oscar 11 05 Sep 10:12:21 10:16:37 62° 100° (E) 10:20:52 145.826/435.025
UNISAT 6 05 Sep 10:23:13 10:27:46 53° 75° (ENE) 10:32:22 437.425
PCSat 05 Sep 10:29:05 10:34:31 73° 64° (ENE) 10:39:54 145.827
DUCHIFAT 1 05 Sep 10:30:17 10:33:10 19° 70° (ENE) 10:36:11 145.980
DOVE 4 05 Sep 10:30:23 10:33:42 16° 293° (WNW) 10:36:46 437.250
POLYITAN 1 05 Sep 10:33:41 10:36:56 22° 71° (ENE) 10:40:18 437.675
POPSAT HIP 1 05 Sep 10:34:14 10:37:26 22° 71° (ENE) 10:40:45 437.405
CUSAT 1 05 Sep 10:36:52 10:45:05 74° 80° (E) 10:53:01 437.405
CINEMA 3 05 Sep 10:37:29 10:41:38 27° 289° (WNW) 10:45:35 145.822/145.860
NANOSAT C BR1 05 Sep 10:48:49 10:52:33 31° 73° (ENE) 10:56:21 145.865
TIGRISAT 05 Sep 10:49:28 10:54:09 81° 259° (WSW) 10:58:53 435.000
QB50P2 05 Sep 10:51:49 10:55:42 36° 73° (ENE) 10:59:40 145.880/145.840
AISAT 05 Sep 10:57:31 11:00:02 15° 92° (E) 11:02:45 437.250
JUGNU 05 Sep 10:58:10 11:01:52 17° 171° (S) 11:05:38 437.505
ESTCUBE 1 05 Sep 11:03:57 11:05:50 13° 91° (E) 11:07:58 437.505/2401.250
QB50P1 05 Sep 11:04:19 11:08:25 50° 75° (ENE) 11:12:35 145.935-145.965
Cosmos 2504 05 Sep 11:05:12 11:13:18 57° 269° (W) 11:20:47 435.465 / 435.565
ZACube-1 05 Sep 11:07:03 11:11:17 45° 286° (WNW) 11:15:24 437.345
HUMSAT D 05 Sep 11:08:58 11:13:08 65° 100° (E) 11:17:14 437.325/437.525
ANTELSAT 05 Sep 11:09:02 11:13:33 46° 262° (W) 11:18:05 437.575/2403.000
FUNcube-1 05 Sep 11:10:02 11:14:14 43° 286° (WNW) 11:18:17 145.935
HO-68 05 Sep 11:13:26 11:18:15 19° 298° (WNW) 11:22:44 435.675
AUBIESAT-1 05 Sep 11:14:29 11:19:05 48° 256° (WSW) 11:23:34 437.475
DELFI C3 05 Sep 11:20:50 11:24:15 27° 287° (WNW) 11:27:36 145.870
50 SAT 05 Sep 11:22:21 11:25:49 33° 97° (E) 11:29:18 437.505
VELOX 1 05 Sep 11:23:04 11:26:56 29° 96° (E) 11:30:51 145.980
M-CUBED/EXP-1 PRIME 05 Sep 11:25:20 11:29:38 32° 259° (W) 11:33:49 437.505
UWE-3 05 Sep 11:26:24 11:29:51 21° 290° (WNW) 11:33:08 435.000/436.395/437.385
CUBEBUG 2 05 Sep 11:31:03 11:33:50 16° 292° (WNW) 11:36:23 437.445
DANDE 05 Sep 11:42:28 11:50:30 57° 266° (W) 11:58:40 436.750
BUGSAT 1 05 Sep 11:49:01 11:53:05 79° 258° (WSW) 11:57:14 437.445
DX 1 05 Sep 11:49:03 11:53:28 82° 284° (WNW) 11:57:51 434.975-435.025
UKube-1 05 Sep 11:53:22 11:57:44 82° 284° (WNW) 12:02:04 .
SPROUT 05 Sep 11:54:41 11:55:19 10° 90° (E) 11:56:16 437.525
GONETS M04 05 Sep 11:57:03 11:59:38 12° 61° (ENE) 12:03:02
UNISAT 6 05 Sep 12:02:47 12:04:54 12° 270° (W) 12:06:44 437.425
DUCHIFAT 1 05 Sep 12:05:01 12:08:46 30° 264° (W) 12:12:29 145.980
POLYITAN 1 05 Sep 12:09:08 12:12:43 25° 265° (W) 12:16:15 437.675
POPSAT HIP 1 05 Sep 12:09:36 12:13:11 25° 265° (W) 12:16:42 437.405
Oscar 19 05 Sep 12:13:00 12:14:46 12° 65° (ENE) 12:16:50 437.125/150
PCSat 05 Sep 12:15:29 12:17:23 11° 255° (WSW) 12:18:55 145.827
CUBEBUG 1 05 Sep 12:16:32 12:20:59 78° 101° (ESE) 12:25:25 437.445
SRMSAT 05 Sep 12:18:29 12:21:35 15° 168° (SSE) 12:24:46 437.500
CUSAT 1 05 Sep 12:21:05 12:26:58 21° 274° (W) 12:32:20 437.405
NANOSAT C BR1 05 Sep 12:25:35 12:28:27 17° 267° (W) 12:31:11 145.865
QB50P2 05 Sep 12:29:13 12:31:46 15° 268° (W) 12:34:07 145.880/145.840
AISAT 05 Sep 12:32:36 12:36:47 39° 287° (WNW) 12:40:57 437.250
BEESAT 3 05 Sep 12:33:25 12:35:25 14° 110° (ESE) 12:37:38 437.485
TISAT 1 05 Sep 12:35:50 12:38:44 18° 94° (E) 12:41:45 437.305
ESTCUBE 1 05 Sep 12:38:39 12:42:59 47° 286° (WNW) 12:47:18 437.505/2401.250
QB50P1 05 Sep 12:43:37 12:44:38 10° 270° (W) 12:45:21 145.935-145.965
JUGNU 05 Sep 12:45:55 12:50:15 21° 180° (S) 12:54:34 437.505
BEESAT 2 05 Sep 12:52:46 12:55:23 17° 111° (ESE) 12:58:11 435.950
50 SAT 05 Sep 12:58:07 13:00:04 13° 290° (WNW) 13:01:49 437.505
VELOX 1 05 Sep 12:59:55 13:03:19 21° 290° (WNW) 13:06:37 145.980
ITAMSAT 1 05 Sep 13:22:39 13:25:10 14° 66° (ENE) 13:27:57 435.822/435.867
SPROUT 05 Sep 13:27:32 13:31:47 52° 285° (WNW) 13:35:58 437.525
Gurwin Techsat 1B 05 Sep 13:33:43 13:37:49 24° 69° (ENE) 13:42:03 435.225
ISS 05 Sep 13:44:12 13:47:05 29° 37° (NE) 13:49:59 145.825
ITUPSAT 1 05 Sep 13:46:22 13:49:30 18° 93° (E) 13:52:49 437.325
Oscar 19 05 Sep 13:48:26 13:53:34 71° 258° (WSW) 13:58:47 437.125/150
GONETS M04 05 Sep 13:49:28 13:58:18 76° 82° (E) 14:07:09
AIST 2 05 Sep 14:04:52 14:07:59 21° 111° (ESE) 14:11:13 435.215
SRMSAT 05 Sep 14:05:52 14:10:06 20° 177° (S) 14:14:21 437.500
BEESAT 3 05 Sep 14:09:13 14:13:02 39° 303° (WNW) 14:16:53 437.485
TISAT 1 05 Sep 14:10:47 14:14:32 30° 288° (WNW) 14:18:13 437.305
BEESAT 05 Sep 14:15:05 14:19:31 38° 98° (E) 14:23:57 436.000
JAS-2 05 Sep 14:22:39 14:29:48 44° 70° (ENE) 14:37:07 435.910
RS-15 05 Sep 14:28:41 14:38:24 41° 109° (ESE) 14:48:37 29.354- 29.394
BEESAT 2 05 Sep 14:29:30 14:33:13 32° 304° (NW) 14:36:55 435.950
JUGNU 05 Sep 14:35:00 14:38:38 16° 190° (S) 14:42:12 437.505
SWISSCUBE 05 Sep 14:41:35 14:46:22 86° 103° (ESE) 14:51:08 437.505
AO-7 05 Sep 14:52:03 14:59:06 33° 63° (ENE) 15:06:19 29.400- 29.500
Cosmos 2499 05 Sep 14:52:57 15:01:07 51° 77° (ENE) 15:08:42 435.465 / 435.565
ITAMSAT 1 05 Sep 14:59:08 15:04:13 59° 259° (WSW) 15:09:20 435.822/435.867
STARS 05 Sep 15:07:30 15:08:15 11° 90° (E) 15:09:20 437.465
Gurwin Techsat 1B 05 Sep 15:12:45 15:17:37 36° 263° (W) 15:22:27 435.225
ISS 05 Sep 15:20:55 15:23:22 19° 231° (SW) 15:25:45 145.825
ITUPSAT 1 05 Sep 15:23:08 15:27:33 37° 288° (WNW) 15:31:54 437.325
KKS-1 05 Sep 15:36:44 15:41:03 45° 99° (E) 15:45:21 437.445
AIST 2 05 Sep 15:42:38 15:46:23 29° 305° (NW) 15:50:07 435.215
HORYU 2 05 Sep 15:43:11 15:47:25 43° 73° (ENE) 15:51:42 437.375
GONETS M04 05 Sep 15:48:34 15:54:21 19° 277° (W) 15:59:36
BEESAT 05 Sep 15:53:48 15:57:05 18° 291° (WNW) 16:00:12 436.000
SRMSAT 05 Sep 15:54:41 15:58:38 18° 187° (S) 16:02:33 437.500
JAS-2 05 Sep 16:07:50 16:14:50 36° 265° (W) 16:21:50 435.910
MOZHAYETS 4 05 Sep 16:28:28 16:32:02 23° 94° (E) 16:35:42
RS-15 05 Sep 16:40:05 16:50:37 50° 308° (NW) 17:01:29 29.354- 29.394
STARS 05 Sep 16:40:44 16:45:06 54° 285° (WNW) 16:49:24 437.465
AO-7 05 Sep 16:43:35 16:51:39 50° 259° (W) 16:59:38 29.400- 29.500
Cosmos 2499 05 Sep 16:47:00 16:53:49 27° 275° (W) 16:59:59 435.465 / 435.565
KKS-1 05 Sep 17:14:54 17:17:19 14° 292° (WNW) 17:19:32 437.445
Cubesat XI-IV 05 Sep 17:21:13 17:24:48 19° 68° (ENE) 17:28:34 437.490
HORYU 2 05 Sep 17:21:51 17:24:18 14° 268° (W) 17:26:32 437.375
SRMSAT 05 Sep 17:46:04 17:47:08 10° 196° (SSW) 17:48:04 437.500
CUTE-I 05 Sep 18:02:47 18:07:51 49° 73° (ENE) 18:12:58 437.470
MOZHAYETS 4 05 Sep 18:05:23 18:09:14 27° 288° (WNW) 18:12:59
Cosmos 2491 05 Sep 18:08:13 18:10:47 12° 61° (ENE) 18:14:09 435.465 / 435.565
O/OREOS (USA 219) 05 Sep 18:15:43 18:20:14 67° 291° (WNW) 18:24:47 437.305
BRITE-PL 05 Sep 18:30:53 18:32:32 12° 65° (ENE) 18:34:29 437.365/2234.400
CUBESAT XI-V 05 Sep 18:36:42 18:41:13 49° 99° (E) 18:45:46 437.345
Cubesat XI-IV 05 Sep 18:59:31 19:04:36 45° 261° (W) 19:09:41 437.490
AIST 1 05 Sep 19:00:24 19:04:46 88° 83° (E) 19:09:09
RS-15 05 Sep 19:00:50 19:06:59 15° 338° (NNW) 19:12:48 29.354- 29.394
STRAND 1 05 Sep 19:02:05 19:05:54 22° 94° (E) 19:09:51 437.568
CUTE-I 05 Sep 19:44:48 19:48:15 17° 268° (W) 19:51:27 437.470
HO-68 05 Sep 19:48:31 19:54:53 37° 68° (ENE) 20:01:24 435.675
PRISM 05 Sep 19:51:26 19:55:26 48° 100° (E) 19:59:27 437.425
DOVE 4 05 Sep 19:52:56 19:57:06 33° 72° (ENE) 20:01:35 437.250
CINEMA 3 05 Sep 19:59:00 20:01:53 17° 68° (ENE) 20:05:03 145.822/145.860
Cosmos 2491 05 Sep 20:00:39 20:09:27 77° 82° (E) 20:18:15 435.465 / 435.565
CUTE 1.7 + AOD 2 05 Sep 20:01:12 20:04:40 25° 72° (ENE) 20:08:13 437.475
YUBILEINY 05 Sep 20:01:24 20:09:10 39° 88° (E) 20:17:11 435.215
BRITE-PL 05 Sep 20:06:11 20:10:31 55° 262° (W) 20:15:12 437.365/2234.400
GOMX 1 05 Sep 20:06:14 20:10:48 81° 77° (ENE) 20:15:45 467.674
CANX-2 05 Sep 20:15:30 20:19:31 42° 75° (ENE) 20:23:35 2200.000
CUBESAT XI-V 05 Sep 20:15:48 20:18:17 14° 292° (WNW) 20:20:32 437.345
SEEDS 05 Sep 20:26:53 20:30:49 39° 74° (ENE) 20:34:48 437.485
COMPASS 1 05 Sep 20:39:17 20:43:15 42° 75° (ENE) 20:47:14 437.405
STRAND 1 05 Sep 20:40:33 20:45:12 36° 289° (WNW) 20:49:49 437.568
UWE-3 05 Sep 20:43:42 20:46:27 16° 69° (ENE) 20:49:25 435.000/436.395/437.385
AAUSAT CUBESAT 2 05 Sep 20:44:29 20:48:24 40° 74° (ENE) 20:52:20 437.432
CUBEBUG 2 05 Sep 20:47:39 20:51:18 24° 71° (ENE) 20:55:07 437.445
Oscar 11 05 Sep 21:03:31 21:07:15 29° 72° (ENE) 21:11:03 145.826/435.025
RS-15 05 Sep 21:22:04 21:26:35 13° 15° (NNE) 21:31:34 29.354- 29.394
PRISM 05 Sep 21:29:06 21:30:29 11° 292° (WNW) 21:31:39 437.425
DOVE 4 05 Sep 21:31:23 21:34:58 21° 268° (W) 21:38:35 437.250
CINEMA 3 05 Sep 21:34:09 21:38:41 45° 262° (W) 21:43:25 145.822/145.860
HO-68 05 Sep 21:36:05 21:42:36 36° 263° (W) 21:49:03 435.675
CUTE 1.7 + AOD 2 05 Sep 21:37:10 21:40:33 22° 266° (W) 21:43:48 437.475
Cosmos 2504 05 Sep 21:40:08 21:45:31 20° 83° (E) 21:51:30 435.465 / 435.565
CANX-2 05 Sep 21:53:37 21:55:42 13° 269° (W) 21:57:30 2200.000
HUMSAT D 05 Sep 21:56:53 22:00:33 28° 72° (ENE) 22:04:16 437.325/437.525
YUBILEINY 05 Sep 21:57:50 22:05:59 40° 285° (WNW) 22:14:03 435.215
ZACube-1 05 Sep 21:58:11 22:02:45 84° 78° (ENE) 22:07:22 437.345
Cosmos 2491 05 Sep 21:59:49 22:05:30 18° 277° (W) 22:10:39 435.465 / 435.565
FUNcube-1 05 Sep 22:00:54 22:05:28 87° 72° (ENE) 22:10:05 145.935
DELFI C3 05 Sep 22:03:04 22:07:07 82° 258° (WSW) 22:11:10 145.870
50 SAT 05 Sep 22:03:52 22:05:13 12° 69° (ENE) 22:06:46 437.505
SEEDS 05 Sep 22:04:37 22:06:49 13° 269° (W) 22:08:47 437.485
COMPASS 1 05 Sep 22:17:20 22:19:09 12° 269° (W) 22:20:43 437.405
VELOX 1 05 Sep 22:17:53 22:20:36 17° 69° (ENE) 22:23:29 145.980
UWE-3 05 Sep 22:18:14 22:22:37 42° 262° (W) 22:27:04 435.000/436.395/437.385
UNISAT 6 05 Sep 22:20:53 22:23:12 14° 91° (E) 22:25:43 437.425
AAUSAT CUBESAT 2 05 Sep 22:22:15 22:24:13 13° 269° (W) 22:25:56 437.432
CUBEBUG 2 05 Sep 22:23:45 22:27:50 29° 265° (W) 22:31:56 437.445
BEESAT 3 05 Sep 22:31:06 22:34:45 33° 56° (NE) 22:38:22 437.485
Oscar 11 05 Sep 22:40:16 22:43:28 19° 266° (W) 22:46:32 145.826/435.025
DX 1 05 Sep 22:40:41 22:44:52 51° 74° (ENE) 22:49:06 434.975-435.025
UKube-1 05 Sep 22:44:10 22:48:19 49° 74° (ENE) 22:52:31 .
TIGRISAT 05 Sep 22:45:52 22:49:40 27° 95° (E) 22:53:27 435.000
BEESAT 2 05 Sep 22:51:40 22:55:31 42° 57° (ENE) 22:59:19 435.950
QB50P1 05 Sep 22:55:41 22:56:48 11° 90° (E) 22:58:13 145.935-145.965
AUBIESAT-1 05 Sep 23:00:48 23:02:36 14° 96° (E) 23:04:31 437.475
ANTELSAT 05 Sep 23:05:02 23:09:23 49° 99° (E) 23:13:37 437.575/2403.000
CUBEBUG 1 05 Sep 23:08:56 23:12:54 38° 73° (ENE) 23:16:57 437.445
DANDE 05 Sep 23:09:00 23:11:44 20° 85° (E) 23:15:12 436.750
M-CUBED/EXP-1 PRIME 05 Sep 23:10:56 23:13:55 24° 99° (E) 23:16:46 437.505
VERMONT LUNAR 05 Sep 23:22:05 23:22:41 11° 142° (SE) 23:23:24 437.305
AISAT 05 Sep 23:25:55 23:30:18 73° 257° (WSW) 23:34:45 437.250
PCSat 05 Sep 23:25:58 23:29:01 16° 106° (ESE) 23:32:21 145.827
Cosmos 2504 05 Sep 23:28:47 23:36:57 70° 279° (W) 23:45:32 435.465 / 435.565
HUMSAT D 05 Sep 23:33:00 23:36:16 20° 266° (W) 23:39:25 437.325/437.525
RS-15 05 Sep 23:33:23 23:44:03 38° 47° (NE) 23:55:15 29.354- 29.394
ESTCUBE 1 05 Sep 23:34:00 23:38:29 84° 259° (W) 23:42:58 437.505/2401.250
50 SAT 05 Sep 23:35:38 23:39:23 41° 261° (W) 23:43:08 437.505
BUGSAT 1 05 Sep 23:35:44 23:38:52 20° 94° (E) 23:42:05 437.445
SO-50 05 Sep 23:38:10 23:42:54 77° 117° (ESE) 23:47:48 436.795
CUSAT 1 05 Sep 23:39:29 23:43:34 88° 287° (WNW) 23:49:08 437.405
VELOX 1 05 Sep 23:52:50 23:56:54 36° 262° (W) 00:00:57 145.980
DUCHIFAT 1 05 Sep 23:52:52 23:57:05 56° 100° (E) 00:01:15 145.980
UNISAT 6 05 Sep 23:56:01 00:00:14 40° 287° (WNW) 00:04:18 437.425
POLYITAN 1 05 Sep 23:57:28 00:01:46 70° 102° (ESE) 00:06:00 437.675
POPSAT HIP 1 05 Sep 23:57:41 00:01:59 68° 101° (ESE) 00:06:13 437.405
AIST 2 06 Sep 00:07:21 00:11:25 53° 58° (ENE) 00:15:25 435.215
BEESAT 3 06 Sep 00:09:54 00:12:24 16° 250° (WSW) 00:14:43 437.485
NANOSAT C BR1 06 Sep 00:12:31 00:16:49 79° 282° (WNW) 00:21:04 145.865
QB50P2 06 Sep 00:16:14 00:20:31 67° 284° (WNW) 00:24:44 145.880/145.840
SPROUT 06 Sep 00:17:20 00:21:35 71° 77° (ENE) 00:25:54 437.525
DX 1 06 Sep 00:20:14 00:21:28 11° 269° (W) 00:22:24 434.975-435.025
TIGRISAT 06 Sep 00:22:50 00:26:17 21° 290° (WNW) 00:29:33 435.000
UKube-1 06 Sep 00:23:27 00:24:47 11° 269° (W) 00:25:50 .
QB50P1 06 Sep 00:28:51 00:33:00 48° 285° (WNW) 00:37:06 145.935-145.965
BEESAT 2 06 Sep 00:31:23 00:33:12 12° 250° (WSW) 00:34:48 435.950
AUBIESAT-1 06 Sep 00:34:22 00:37:29 26° 293° (WNW) 00:40:22 437.475
ANTELSAT 06 Sep 00:43:41 00:45:44 13° 293° (WNW) 00:47:31 437.575/2403.000
M-CUBED/EXP-1 PRIME 06 Sep 00:46:10 00:48:33 16° 296° (WNW) 00:50:43 437.505
CUBEBUG 1 06 Sep 00:46:57 00:49:27 15° 268° (W) 00:51:46 437.445
ITUPSAT 1 06 Sep 00:50:28 00:52:52 14° 67° (ENE) 00:55:29 437.325
DANDE 06 Sep 00:51:36 00:54:43 22° 293° (WNW) 00:58:28 436.750
GONETS M04 06 Sep 00:53:40 00:57:58 16° 82° (E) 01:02:55
VERMONT LUNAR 06 Sep 00:55:44 00:58:45 80° 154° (SSE) 01:01:45 437.305
TISAT 1 06 Sep 00:58:11 01:02:22 67° 259° (W) 01:06:36 437.305
PCSat 06 Sep 01:06:44 01:12:02 55° 299° (WNW) 01:17:21 145.827
BUGSAT 1 06 Sep 01:10:40 01:14:18 27° 288° (WNW) 01:17:52 437.445
BEESAT 06 Sep 01:18:01 01:22:04 29° 71° (ENE) 01:26:12 436.000
SO-50 06 Sep 01:21:44 01:24:06 13° 316° (NW) 01:26:17 436.795
Cosmos 2504 06 Sep 01:28:53 01:31:06 11° 300° (WNW) 01:32:32 435.465 / 435.565
DUCHIFAT 1 06 Sep 01:31:34 01:32:26 10° 293° (WNW) 01:33:01 145.980
SWISSCUBE 06 Sep 01:44:09 01:48:51 63° 75° (ENE) 01:53:33 437.505
RS-15 06 Sep 01:45:31 01:57:17 63° 247° (WSW) 02:09:14 29.354- 29.394
AIST 2 06 Sep 01:49:01 01:49:33 10° 251° (WSW) 01:49:47 435.215
PHONESAT 2.4 06 Sep 01:54:47 01:57:05 17° 144° (SE) 01:59:27 2401.200-2431.200
Gurwin Techsat 1B 06 Sep 01:55:17 01:57:09 12° 90° (E) 01:59:23 435.225
Oscar 19 06 Sep 02:04:00 02:09:07 57° 100° (E) 02:14:12 437.125/150
ITUPSAT 1 06 Sep 02:25:44 02:30:23 50° 260° (W) 02:35:01 437.325
KKS-1 06 Sep 02:31:27 02:35:06 26° 71° (ENE) 02:38:52 437.445
VERMONT LUNAR 06 Sep 02:32:43 02:35:19 26° 349° (N) 02:37:56 437.305
GONETS M04 06 Sep 02:45:11 02:53:53 84° 277° (W) 03:02:39
O/OREOS (USA 219) 06 Sep 02:53:25 02:54:11 10° 55° (NE) 02:55:14 437.305
BEESAT 06 Sep 02:56:04 02:59:54 23° 265° (W) 03:03:39 436.000
ITAMSAT 1 06 Sep 03:15:47 03:20:57 68° 101° (E) 03:26:08 435.822/435.867
JAS-2 06 Sep 03:22:42 03:28:54 46° 97° (E) 03:34:25 435.910
Cosmos 2499 06 Sep 03:23:08 03:31:05 47° 90° (E) 03:39:28 435.465 / 435.565
SWISSCUBE 06 Sep 03:26:14 03:27:11 10° 270° (W) 03:27:45 437.505
MOZHAYETS 4 06 Sep 03:27:45 03:30:14 15° 69° (ENE) 03:32:55
PHONESAT 2.4 06 Sep 03:31:16 03:34:42 78° 336° (NNW) 03:38:08 2401.200-2431.200
Gurwin Techsat 1B 06 Sep 03:32:24 03:37:40 65° 285° (WNW) 03:42:55 435.225
STARS 06 Sep 03:33:17 03:37:42 79° 77° (ENE) 03:42:09 437.465
HORYU 2 06 Sep 03:40:48 03:41:50 11° 90° (E) 03:43:11 437.375
Oscar 19 06 Sep 03:45:04 03:48:02 15° 294° (WNW) 03:50:45 437.125/150
KKS-1 06 Sep 04:08:07 04:11:42 23° 265° (W) 04:15:12 437.445
VERMONT LUNAR 06 Sep 04:09:45 04:12:13 23° 6° (N) 04:14:41 437.305
O/OREOS (USA 219) 06 Sep 04:29:37 04:34:12 68° 253° (WSW) 04:38:43 437.305
